CZ-2D DEB, 43490

Orbit data source: Space-Track

CZ-2D DEB, 43490 is space debris in SSO originally from a launch on Sat, 02 Jun 2018 UTC launched from the Jiuquan Satellite Launch Center, China (JSC). Debris objects in space refer to the collection of defunct objects orbiting the Earth. Examples of debris include non-operational satellites, rocket bodies, and fragments generated from explosions, collisions, or faulty payload assembly.

Loading next visibility...
Identifier
43490, 2018-048E
Orbit
SSO
Country
Flag of CNCN / PRC
Related business
Manufacturer
CALT
Mission
Spacecraft
Bus & Motor
Unknown
Mass
1 kg wet, 1 kg dry
Launch date (UTC)
2018-06-02 (8 years ago)
Launch vehicle
Unknown
Launch site
Jiuquan Satellite Launch Center, China (JSC)
Object type
Payload
Rocket body
Debris
Shape & HBR
Cone, 0.1 m
Radar Cross Section
0.025 m², Small (<0.1 m²)

Expand to show TLE details & history
Last TLE update: 18 hours ago

TLE from 18 hours ago
0 CZ-2D DEB
1 43490U 18048E   26125.38907045  .00005956  00000-0  53560-3 0  9990
2 43490  98.2697 290.6534 0022054 288.7482  71.1345 14.95890135427788
Epoch: 2026-05-05T09:20Z
TLE epoch observation values (Epoch: 2026-05-05T09:20:15.686Z)
Latitude
0.00001°
Longitude
-72.67658°
Altitude
577.711 km
Speed
7.574 km/s
True Right ascension
19h 22m 36s
True Declination
0° 00' 00"
Sunlit
Object was in daylight at epoch
Visualization orbit readout
Latitude
Unknown
Longitude
Unknown
Altitude
Unknown
Speed
Unknown
Apparent Right ascension
Unknown
Apparent Declination
Unknown
Sunlit
N/A
Visualization observer readout
Local Sidereal Time
11:03:41
Azimuth
Unknown
Elevation
Unknown
Doppler factor
Unknown
Orbital elements
Apogee altitude
591.986 km
Perigee altitude
561.31 km
Semi-major axis
6,954.785 km
Eccentricity
0.00221
Inclination
98.2697°
RAAN
290.6534°
Arg. of periapsis
288.7482°
True anomaly
71.37386°
Mean anomaly
71.1345°
Eccentric anomaly
71.25416°
Mean motion
3.74212 °/min
Orbital period
96.2 mins
BSTAR
0.0005356
Loading maneuver chart data...
Computing Atmospheric mass density...
Loading historical data...
Loading historical data...
Loading historical data...
Loading historical data...
Loading historical data...
Loading historical data...
Loading historical data...
Other satellites on launch #48 in the year 2018 (2018-06-02 UTC)

Documentation

Showing up to 5 results
|